Regional Weather Roundup
Issued by NWS

Home | Current Version | Previous Version | Text Only | Print | Product List | Glossary On
Versions: 1 2 3 4 5 6 7 8 9 10 11 12 13 14 15 16 17 18 19 20 21 22 23 24 25 26 27 28 29 30 31 32 33 34 35 36 37 38 39 40 41 42 43 44 45 46 47 48 49 50
000
ASCA44 KEWX 261320
RWRMX

LATIN AMERICA AND CARIBBEAN REGIONAL WEATHER ROUNDUP
NATIONAL WEATHER SERVICE AUSTIN/SAN ANTONIO TX
800 AM CDT SAT JUL 26 2014

NOTE: "FAIR" INDICATED FEW OR NO CLOUDS BELOW 12,000 FEET WITH NO
SIGNIFICANT WEATHER AND/OR OBSTRUCTIONS TO VISIBILITY.

BAJA CALIFORNIA

CITY           SKY/WX    TMP DP  RH WIND       PRES   REMARKS
LORETO         CLOUDY    86  70  58 N9        29.89  HX  90
TIJUANA        CLOUDY    66  63  88 NW5       29.97R FOG

NORTHWESTERN MEXICO

CITY           SKY/WX    TMP DP  RH WIND       PRES   REMARKS
DURANGO        PTCLDY    57  55  94 CALM      30.30
CD. JUAREZ     CLEAR     75  55  50 S7        30.02

NORTHEASTERN MEXICO

CITY           SKY/WX    TMP DP  RH WIND       PRES   REMARKS
CHIHUAHUA      PTCLDY    72  52  49 SW6       30.15
MATAMOROS      MOSUNNY   81  77  89 CALM      30.01
MONCLOVA       MOSUNNY  N/A N/A N/A S5        29.99S
MONTERREY      PTSUNNY   73  66  78 CALM      29.99R
NUEVO LAREDO   SUNNY     81  70  69 SE7       29.97
REYNOSA        MOSUNNY   77  72  83 SE5       29.98
SALTILLO       MOSUNNY   72  55  56 SE17      30.23R
TORREON        MOCLDY    75  54  46 CALM      30.12R
CD. VICTORIA   MOSUNNY   77  70  78 S8        30.01

WESTERN MEXICO

CITY           SKY/WX    TMP DP  RH WIND       PRES   REMARKS
AGUASCALIENTES PTCLDY    55  52  88 N6        30.33
COLIMA         PTCLDY    73  66  78 CALM      30.02R
DEL BAJIO      PTCLDY    59  55  88 W3        30.34R
GUADALAJARA    PTCLDY    57  54  88 CALM      30.23
MANZANILLO     PTCLDY    77  68  73 N6        29.86
MAZATLAN       MOCLDY    73  68  83 N8        29.88R
P. VALLARTA    MOCLDY    77  73  88 CALM      29.90R
URUAPAN        CLEAR     59  57  94 CALM      30.22S
ZACATECAS      MOCLDY    54  45  71 CALM      30.36R

CENTRAL MEXICO

CITY           SKY/WX    TMP DP  RH WIND       PRES   REMARKS
CUERNAVACA     MOCLDY    64  52  63 NW5       30.20R
MEXICO CITY    PTSUNNY   55  50  82 SE2       30.40R
MORELIA        PTCLDY    50  50 100 CALM      30.30
POZA RICA      MOSUNNY   79  77  94 CALM      30.04R FOG
PUEBLA         MOSUNNY   48  45  87 N6        30.41R WCI  46
QUERETARO      PTCLDY    57  55  94 CALM      30.35R
S. LUIS POTOSI MOCLDY    59  55  88 CALM      30.32R
TAMPICO        MOSUNNY   79  75  89 CALM      30.02R
TOLUCA         MOCLDY    43  39  87 CALM      30.45R

SOUTHERN MEXICO

CITY           SKY/WX    TMP DP  RH WIND       PRES   REMARKS
ACAPULCO       PTCLDY    79  73  83 N7        29.86S
B. DE HUATULCO MOSUNNY   77  66  69 CALM      29.92
OAXACA         MOSUNNY   54  50  87 CALM      30.30R
P. ESCONDIDO   MOSUNNY   75  68  78 E15       30.00S
VERACRUZ       PTSUNNY   75  73  94 NW2       30.02R
ZIHUATANEJO    PTCLDY    77  72  83 CALM      29.87S

YUCATAN PENINSULA

CITY           SKY/WX    TMP DP  RH WIND       PRES   REMARKS
CAMPECHE       MOSUNNY   77  75  94 SE12      30.02R
CANCUN         MOSUNNY   77  75  94 CALM      30.06R
CHETUMAL       PTSUNNY   81  73  78 N7        30.01R
CD. DEL CARMEN MOSUNNY   82  77  83 SE12      30.01  HX  91
COZUMEL        MOSUNNY   79  79 100 CALM      30.05R
MERIDA         SUNNY     79  73  83 E6        30.05R
MINATITLAN     PTSUNNY   84  73  70 N9        29.98  HX  91
TAPACHULA      PTSUNNY   79  75  89 CALM      29.91S
TUX. GUTIERREZ PTSUNNY   73  70  88 CALM      30.03R
VILLAHERMOSA   MOSUNNY   77  73  88 E9        30.01R

CENTRAL AMERICA

CITY           SKY/WX    TMP DP  RH WIND       PRES   REMARKS
BELIZE CITY    PTSUNNY   84  81  89 E8        30.00  HX  98
MANAGUA        MOSUNNY   81  73  78 E7        29.86S

CARIBBEAN

CITY           SKY/WX    TMP DP  RH WIND       PRES   REMARKS
ARUBA          MOSUNNY   84  77  79 E21       29.92S HX  94
CURACAO        PTSUNNY   84  77  79 E10       29.97R HX  94
NASSAU         MOSUNNY   86  73  66 E5        30.10R HX  93
SAN JUAN       MOSUNNY   86  73  66 E16       30.05S HX  93
SANTO DOMINGO  MOSUNNY   82  75  78 E9        30.00S
ST. CROIX      MOSUNNY   88  73  62 E18G25    30.05R HX  96
ST. KITTS      MOSUNNY   86  77  74 NE15      30.03S HX  97
ST. MAARTEN    PTSUNNY   86  75  70 E15       30.03S HX  95
ST. THOMAS     CLOUDY    88  73  62 E14       30.04F HX  96

$$



USA.gov is the U.S. government's official web portal to all federal, state and local government web resources and services.